"datetime","temp","dp","rain_mm","uv","solar","mb","wind_mph","gust_mph","windchill","rh"
"2019-09-25 00:00:00",14.9,14.4,0.0,0.0,0,1000.0,0,1,"",97
"2019-09-25 00:01:00",14.9,14.4,0.0,0.0,0,1000.0,1,2,"",97
"2019-09-25 00:02:00",14.9,14.4,0.0,0.0,0,1000.0,0,0,"",97
"2019-09-25 00:03:00",14.9,14.4,0.0,0.0,0,999.9,0,0,"",97
"2019-09-25 00:04:00",14.9,14.4,0.0,0.0,0,1000.0,0,1,"",97
"2019-09-25 00:05:00",14.9,14.4,0.0,0.0,0,999.9,0,0,"",97
"2019-09-25 00:06:00",14.8,14.3,0.0,0.0,0,1000.0,0,1,"",97
"2019-09-25 00:07:00",14.9,14.4,0.0,0.0,0,999.9,0,1,"",97
"2019-09-25 00:08:00",14.8,14.3,0.0,0.0,0,1000.0,1,3,"",97
"2019-09-25 00:09:00",14.8,14.3,0.0,0.0,0,999.9,1,2,"",97
"2019-09-25 00:10:00",14.8,14.3,0.0,0.0,0,999.9,0,1,"",97
"2019-09-25 00:11:00",14.8,14.3,0.0,0.0,0,999.9,0,0,"",97
"2019-09-25 00:12:00",14.8,14.3,0.0,0.0,0,999.9,0,0,"",97
"2019-09-25 00:13:00",14.8,14.3,0.0,0.0,0,999.8,0,3,"",97
"2019-09-25 00:14:00",14.8,14.3,0.0,0.0,0,999.9,0,0,"",97
"2019-09-25 00:15:00",14.8,14.3,0.0,0.0,0,999.9,0,1,"",97
"2019-09-25 00:16:00",14.8,14.3,0.0,0.0,0,999.9,0,1,"",97
"2019-09-25 00:17:00",14.7,14.2,0.0,0.0,0,999.9,0,0,"",97
"2019-09-25 00:18:00",14.7,14.2,0.0,0.0,0,999.8,0,0,"",97
"2019-09-25 00:19:00",14.7,14.2,0.0,0.0,0,999.8,0,1,"",97
"2019-09-25 00:20:00",14.7,14.2,0.0,0.0,0,999.8,0,1,"",97
"2019-09-25 00:21:00",14.7,14.2,0.0,0.0,0,999.8,0,1,"",97
"2019-09-25 00:22:00",14.7,14.2,0.0,0.0,0,999.8,0,1,"",97
"2019-09-25 00:23:00",14.7,14.2,0.0,0.0,0,999.8,0,1,"",97
"2019-09-25 00:24:00",14.7,14.2,0.0,0.0,0,999.8,1,2,"",97
"2019-09-25 00:25:00",14.7,14.2,0.0,0.0,0,999.8,0,1,"",97
"2019-09-25 00:26:00",14.7,14.2,0.0,0.0,0,999.8,0,0,"",97
"2019-09-25 00:27:00",14.7,14.2,0.0,0.0,0,999.8,0,2,"",97
"2019-09-25 00:28:00",14.7,14.2,0.0,0.0,0,999.7,0,1,"",97
"2019-09-25 00:29:00",14.7,14.2,0.0,0.0,0,999.8,0,1,"",97
"2019-09-25 00:30:00",14.7,14.2,0.0,0.0,0,999.7,0,0,"",97
"2019-09-25 00:31:00",14.7,14.2,0.0,0.0,0,999.7,0,0,"",97
"2019-09-25 00:32:00",14.7,14.2,0.0,0.0,0,999.7,0,1,"",97
"2019-09-25 00:33:00",14.7,14.2,0.0,0.0,0,999.7,1,2,"",97
"2019-09-25 00:34:00",14.7,14.2,0.0,0.0,0,999.7,1,1,"",97
"2019-09-25 00:35:00",14.7,14.2,0.0,0.0,0,999.7,0,2,"",97
"2019-09-25 00:36:00",14.7,14.2,0.0,0.0,0,999.6,0,1,"",97
"2019-09-25 00:37:00",14.7,14.2,0.0,0.0,0,999.7,5,9,"",97
"2019-09-25 00:38:00",14.7,14.2,0.0,0.0,0,999.7,1,3,"",97
"2019-09-25 00:39:00",14.7,14.2,0.0,0.0,0,999.7,0,1,"",97
"2019-09-25 00:40:00",14.7,14.2,0.0,0.0,0,999.7,0,1,"",97
"2019-09-25 00:41:00",14.7,14.2,0.0,0.0,0,999.7,0,2,"",97
"2019-09-25 00:42:00",14.7,14.2,0.0,0.0,0,999.7,0,1,"",97
"2019-09-25 00:43:00",14.7,14.2,0.0,0.0,0,999.7,1,7,"",97
"2019-09-25 00:44:00",14.7,14.2,0.0,0.0,0,999.7,1,4,"",97
"2019-09-25 00:45:00",14.7,14.2,0.0,0.0,0,999.6,1,1,"",97
"2019-09-25 00:46:00",14.7,14.2,0.0,0.0,0,999.7,0,1,"",97
"2019-09-25 00:47:00",14.7,14.2,0.0,0.0,0,999.6,0,0,"",97
"2019-09-25 00:48:00",14.7,14.2,0.0,0.0,0,999.6,1,3,"",97
"2019-09-25 00:49:00",14.7,14.2,0.0,0.0,0,999.5,2,4,"",97
"2019-09-25 00:50:00",14.7,14.2,0.0,0.0,0,999.6,0,2,"",97
"2019-09-25 00:51:00",14.7,14.2,0.0,0.0,0,999.5,1,2,"",97
"2019-09-25 00:52:00",14.7,14.2,0.0,0.0,0,999.5,0,1,"",97
"2019-09-25 00:53:00",14.7,14.2,0.0,0.0,0,999.5,0,0,"",97
"2019-09-25 00:54:00",14.7,14.2,0.0,0.0,0,999.5,0,0,"",97
"2019-09-25 00:55:00",14.7,14.2,0.0,0.0,0,999.5,0,1,"",97
"2019-09-25 00:56:00",14.7,14.2,0.0,0.0,0,999.5,3,7,"",97
"2019-09-25 00:57:00",14.7,14.2,0.0,0.0,0,999.5,1,2,"",97
"2019-09-25 00:58:00",14.7,14.2,0.0,0.0,0,999.5,0,1,"",97
"2019-09-25 00:59:00",14.7,14.2,0.0,0.0,0,999.5,0,1,"",97
"2019-09-25 01:00:00",14.7,14.2,0.0,0.0,0,999.5,0,1,"",97
"2019-09-25 01:01:00",14.7,14.2,0.0,0.0,0,999.5,1,4,"",97
"2019-09-25 01:02:00",14.7,14.2,0.0,0.0,0,999.5,1,2,"",97
"2019-09-25 01:03:00",14.8,14.3,0.0,0.0,0,999.5,0,1,"",97
"2019-09-25 01:04:00",14.8,14.3,0.0,0.0,0,999.5,0,2,"",97
"2019-09-25 01:05:00",14.8,14.3,0.0,0.0,0,999.5,0,1,"",97
"2019-09-25 01:06:00",14.7,14.2,0.0,0.0,0,999.5,0,0,"",97
"2019-09-25 01:07:00",14.8,14.3,0.0,0.0,0,999.5,0,0,"",97
"2019-09-25 01:08:00",14.8,14.3,0.0,0.0,0,999.5,0,0,"",97
"2019-09-25 01:09:00",14.8,14.3,0.0,0.0,0,999.5,0,0,"",97
"2019-09-25 01:10:00",14.8,14.3,0.0,0.0,0,999.5,1,3,"",97
"2019-09-25 01:11:00",14.8,14.3,0.0,0.0,0,999.4,0,1,"",97
"2019-09-25 01:12:00",14.8,14.3,0.0,0.0,0,999.5,0,0,"",97
"2019-09-25 01:13:00",14.8,14.3,0.0,0.0,0,999.5,0,0,"",97
"2019-09-25 01:14:00",14.8,14.3,0.0,0.0,0,999.5,1,2,"",97
"2019-09-25 01:15:00",14.8,14.3,0.0,0.0,0,999.4,0,1,"",97
"2019-09-25 01:16:00",14.8,14.3,0.0,0.0,0,999.4,0,1,"",97
"2019-09-25 01:17:00",14.8,14.3,0.0,0.0,0,999.5,0,3,"",97
"2019-09-25 01:18:00",14.8,14.3,0.0,0.0,0,999.5,1,3,"",97
"2019-09-25 01:19:00",14.8,14.3,0.0,0.0,0,999.5,0,2,"",97
"2019-09-25 01:20:00",14.8,14.3,0.0,0.0,0,999.4,1,2,"",97
"2019-09-25 01:21:00",14.8,14.3,0.0,0.0,0,999.4,0,1,"",97
"2019-09-25 01:22:00",14.8,14.3,0.0,0.0,0,999.5,1,3,"",97
"2019-09-25 01:23:00",14.8,14.3,0.0,0.0,0,999.4,0,1,"",97
"2019-09-25 01:24:00",14.8,14.3,0.0,0.0,0,999.4,1,3,"",97
"2019-09-25 01:25:00",14.8,14.3,0.0,0.0,0,999.4,0,0,"",97
"2019-09-25 01:26:00",14.8,14.3,0.0,0.0,0,999.3,1,3,"",97
"2019-09-25 01:27:00",14.8,14.3,0.0,0.0,0,999.4,0,1,"",97
"2019-09-25 01:28:00",14.8,14.3,0.0,0.0,0,999.4,0,1,"",97
"2019-09-25 01:29:00",14.8,14.3,0.0,0.0,0,999.4,1,2,"",97
"2019-09-25 01:30:00",14.8,14.3,0.0,0.0,0,999.3,0,0,"",97
"2019-09-25 01:31:00",14.8,14.3,0.0,0.0,0,999.4,0,1,"",97
"2019-09-25 01:32:00",14.8,14.3,0.0,0.0,0,999.3,0,2,"",97
"2019-09-25 01:33:00",14.8,14.3,0.0,0.0,0,999.4,2,4,"",97
"2019-09-25 01:34:00",14.8,14.3,0.0,0.0,0,999.4,2,5,"",97
"2019-09-25 01:35:00",14.8,14.3,0.0,0.0,0,999.4,1,2,"",97
"2019-09-25 01:36:00",14.8,14.3,0.0,0.0,0,999.4,2,6,"",97
"2019-09-25 01:37:00",14.8,14.3,0.0,0.0,0,999.3,1,2,"",97
"2019-09-25 01:38:00",14.8,14.3,0.0,0.0,0,999.3,1,5,"",97
"2019-09-25 01:39:00",14.8,14.3,0.0,0.0,0,999.3,0,0,"",97
"2019-09-25 01:40:00",14.8,14.3,0.0,0.0,0,999.3,0,0,"",97
"2019-09-25 01:41:00",14.8,14.3,0.0,0.0,0,999.3,0,0,"",97
"2019-09-25 01:42:00",14.8,14.3,0.0,0.0,0,999.3,2,5,"",97
"2019-09-25 01:43:00",14.9,14.4,0.0,0.0,0,999.3,1,3,"",97
"2019-09-25 01:44:00",14.8,14.3,0.0,0.0,0,999.3,1,3,"",97
"2019-09-25 01:45:00",14.8,14.3,0.0,0.0,0,999.3,0,2,"",97
"2019-09-25 01:46:00",14.9,14.4,0.0,0.0,0,999.3,0,2,"",97
"2019-09-25 01:47:00",14.9,14.4,0.0,0.0,0,999.2,1,3,"",97
"2019-09-25 01:48:00",14.9,14.4,0.0,0.0,0,999.3,1,4,"",97
"2019-09-25 01:49:00",14.8,14.3,0.0,0.0,0,999.2,2,3,"",97
"2019-09-25 01:50:00",14.8,14.3,0.0,0.0,0,999.2,0,1,"",97
"2019-09-25 01:51:00",14.8,14.3,0.0,0.0,0,999.2,1,2,"",97
"2019-09-25 01:52:00",14.8,14.3,0.0,0.0,0,999.2,1,5,"",97
"2019-09-25 01:53:00",14.8,14.3,0.0,0.0,0,999.1,1,3,"",97
"2019-09-25 01:54:00",14.8,14.3,0.0,0.0,0,999.2,0,1,"",97
"2019-09-25 01:55:00",14.8,14.3,0.0,0.0,0,999.2,1,2,"",97
"2019-09-25 01:56:00",14.9,14.4,0.0,0.0,0,999.2,1,2,"",97
"2019-09-25 01:57:00",14.8,14.3,0.0,0.0,0,999.2,0,1,"",97
"2019-09-25 01:58:00",14.9,14.4,0.0,0.0,0,999.2,0,2,"",97
"2019-09-25 01:59:00",14.9,14.4,0.0,0.0,0,999.1,0,1,"",97
"2019-09-25 02:00:00",14.8,14.3,0.0,0.0,0,999.1,1,2,"",97
"2019-09-25 02:01:00",14.8,14.3,0.0,0.0,0,999.1,1,2,"",97
"2019-09-25 02:02:00",14.9,14.4,0.0,0.0,0,999.1,2,6,"",97
"2019-09-25 02:03:00",14.9,14.4,0.0,0.0,0,999.0,1,2,"",97
"2019-09-25 02:04:00",14.9,14.4,0.0,0.0,0,999.0,1,3,"",97
"2019-09-25 02:05:00",14.8,14.3,0.0,0.0,0,999.1,1,2,"",97
"2019-09-25 02:06:00",14.9,14.4,0.0,0.0,0,999.0,1,2,"",97
"2019-09-25 02:07:00",14.9,14.4,0.0,0.0,0,999.0,0,0,"",97
"2019-09-25 02:08:00",14.9,14.4,0.0,0.0,0,999.0,0,2,"",97
"2019-09-25 02:09:00",14.9,14.4,0.0,0.0,0,998.9,1,4,"",97
"2019-09-25 02:10:00",14.9,14.4,0.2,0.0,0,999.0,2,4,"",97
"2019-09-25 02:11:00",14.9,14.4,0.2,0.0,0,999.0,0,1,"",97
"2019-09-25 02:12:00",14.9,14.4,0.2,0.0,0,998.9,0,0,"",97
"2019-09-25 02:13:00",14.9,14.4,0.2,0.0,0,998.9,0,0,"",97
"2019-09-25 02:14:00",14.9,14.4,0.2,0.0,0,999.0,1,2,"",97
"2019-09-25 02:15:00",14.9,14.4,0.2,0.0,0,999.0,0,0,"",97
"2019-09-25 02:16:00",14.9,14.4,0.2,0.0,0,999.0,1,3,"",97
"2019-09-25 02:17:00",14.9,14.4,0.2,0.0,0,998.9,0,0,"",97
"2019-09-25 02:18:00",14.9,14.4,0.2,0.0,0,998.9,2,6,"",97
"2019-09-25 02:19:00",14.9,14.4,0.2,0.0,0,998.9,1,2,"",97
"2019-09-25 02:20:00",14.9,14.4,0.2,0.0,0,998.9,1,2,"",97
"2019-09-25 02:21:00",14.9,14.4,0.2,0.0,0,998.9,0,1,"",97
"2019-09-25 02:22:00",14.9,14.4,0.2,0.0,0,998.9,0,1,"",97
"2019-09-25 02:23:00",14.9,14.4,0.2,0.0,0,998.9,1,3,"",97
"2019-09-25 02:24:00",14.9,14.4,0.2,0.0,0,998.9,1,3,"",97
"2019-09-25 02:25:00",14.9,14.4,0.2,0.0,0,998.9,1,2,"",97
"2019-09-25 02:26:00",14.9,14.4,0.2,0.0,0,998.9,0,1,"",97
"2019-09-25 02:27:00",14.8,14.3,0.2,0.0,0,998.9,1,2,"",97
"2019-09-25 02:28:00",14.9,14.4,0.2,0.0,0,998.8,1,2,"",97
"2019-09-25 02:29:00",14.9,14.4,0.2,0.0,0,998.9,2,8,"",97
"2019-09-25 02:30:00",14.9,14.4,0.2,0.0,0,998.8,1,3,"",97
"2019-09-25 02:31:00",14.9,14.4,0.2,0.0,0,998.9,0,0,"",97
"2019-09-25 02:32:00",14.9,14.4,0.2,0.0,0,998.8,1,4,"",97
"2019-09-25 02:33:00",14.9,14.4,0.2,0.0,0,998.8,1,3,"",97
"2019-09-25 02:34:00",14.9,14.4,0.4,0.0,0,998.8,0,3,"",97
"2019-09-25 02:35:00",14.9,14.4,0.4,0.0,0,998.8,1,4,"",97
"2019-09-25 02:36:00",14.9,14.4,0.4,0.0,0,998.7,2,6,"",97
"2019-09-25 02:37:00",14.9,14.4,0.4,0.0,0,998.7,1,2,"",97
"2019-09-25 02:38:00",14.9,14.4,0.4,0.0,0,998.7,0,0,"",97
"2019-09-25 02:39:00",14.9,14.4,0.4,0.0,0,998.7,0,2,"",97
"2019-09-25 02:40:00",14.8,14.3,0.4,0.0,0,998.7,0,0,"",97
"2019-09-25 02:41:00",14.9,14.4,0.4,0.0,0,998.7,1,4,"",97
"2019-09-25 02:42:00",14.9,14.4,0.4,0.0,0,998.7,1,2,"",97
"2019-09-25 02:43:00",14.9,14.4,0.4,0.0,0,998.6,0,0,"",97
"2019-09-25 02:44:00",14.9,14.4,0.4,0.0,0,998.6,0,2,"",97
"2019-09-25 02:45:00",14.9,14.4,0.4,0.0,0,998.6,0,1,"",97
"2019-09-25 02:46:00",14.9,14.4,0.4,0.0,0,998.6,0,1,"",97
"2019-09-25 02:47:00",14.9,14.4,0.4,0.0,0,998.6,0,0,"",97
"2019-09-25 02:48:00",14.9,14.4,0.4,0.0,0,998.6,1,3,"",97
"2019-09-25 02:49:00",14.9,14.4,0.4,0.0,0,998.6,0,1,"",97
"2019-09-25 02:50:00",14.9,14.4,0.4,0.0,0,998.5,0,0,"",97
"2019-09-25 02:51:00",14.9,14.4,0.4,0.0,0,998.5,0,0,"",97
"2019-09-25 02:52:00",14.9,14.4,0.4,0.0,0,998.5,0,0,"",97
"2019-09-25 02:53:00",14.9,14.4,0.4,0.0,0,998.5,0,0,"",97
"2019-09-25 02:54:00",14.9,14.4,0.4,0.0,0,998.5,0,0,"",97
"2019-09-25 02:55:00",14.9,14.4,0.4,0.0,0,998.5,1,3,"",97
"2019-09-25 02:56:00",14.9,14.4,0.4,0.0,0,998.5,0,1,"",97
"2019-09-25 02:57:00",14.9,14.4,0.4,0.0,0,998.5,0,0,"",97
"2019-09-25 02:58:00",14.9,14.4,0.4,0.0,0,998.4,0,1,"",97
"2019-09-25 02:59:00",14.9,14.4,0.4,0.0,0,998.4,1,4,"",97
"2019-09-25 03:00:00",14.9,14.4,0.4,0.0,0,998.4,1,2,"",97
"2019-09-25 03:01:00",14.9,14.4,0.4,0.0,0,998.4,0,0,"",97
"2019-09-25 03:02:00",14.9,14.4,0.4,0.0,0,998.4,0,2,"",97
"2019-09-25 03:03:00",14.9,14.4,0.4,0.0,0,998.4,1,2,"",97
"2019-09-25 03:04:00",14.9,14.4,0.4,0.0,0,998.4,0,1,"",97
"2019-09-25 03:05:00",14.9,14.4,0.4,0.0,0,998.4,0,1,"",97
"2019-09-25 03:06:00",14.9,14.4,0.4,0.0,0,998.4,0,1,"",97
"2019-09-25 03:07:00",14.9,14.4,0.4,0.0,0,998.4,0,2,"",97
"2019-09-25 03:08:00",14.9,14.4,0.4,0.0,0,998.3,1,3,"",97
"2019-09-25 03:09:00",14.9,14.4,0.4,0.0,0,998.3,0,0,"",97
"2019-09-25 03:10:00",14.9,14.4,0.4,0.0,0,998.4,0,0,"",97
"2019-09-25 03:11:00",14.9,14.4,0.6,0.0,0,998.3,0,0,"",97
"2019-09-25 03:12:00",14.9,14.4,0.6,0.0,0,998.3,0,1,"",97
"2019-09-25 03:13:00",14.9,14.4,0.6,0.0,0,998.3,0,0,"",97
"2019-09-25 03:14:00",14.9,14.4,0.6,0.0,0,998.3,0,1,"",97
"2019-09-25 03:15:00",14.9,14.4,0.6,0.0,0,998.3,1,1,"",97
"2019-09-25 03:16:00",14.9,14.4,0.6,0.0,0,998.3,1,2,"",97
"2019-09-25 03:17:00",14.9,14.4,0.6,0.0,0,998.3,0,1,"",97
"2019-09-25 03:18:00",14.9,14.4,0.6,0.0,0,998.3,2,5,"",97
"2019-09-25 03:19:00",14.9,14.4,0.6,0.0,0,998.3,2,4,"",97
"2019-09-25 03:20:00",14.9,14.4,0.6,0.0,0,998.3,3,5,"",97
"2019-09-25 03:21:00",14.9,14.4,0.6,0.0,0,998.3,1,3,"",97
"2019-09-25 03:22:00",14.9,14.4,0.6,0.0,0,998.2,2,5,"",97
"2019-09-25 03:23:00",14.9,14.4,0.6,0.0,0,998.2,1,2,"",97
"2019-09-25 03:24:00",14.9,14.4,0.6,0.0,0,998.2,2,5,"",97
"2019-09-25 03:25:00",14.9,14.4,0.6,0.0,0,998.2,1,2,"",97
"2019-09-25 03:26:00",14.9,14.4,0.6,0.0,0,998.2,0,1,"",97
"2019-09-25 03:27:00",14.9,14.4,0.6,0.0,0,998.2,0,1,"",97
"2019-09-25 03:28:00",14.9,14.4,0.6,0.0,0,998.1,0,0,"",97
"2019-09-25 03:29:00",14.9,14.4,0.6,0.0,0,998.1,2,7,"",97
"2019-09-25 03:30:00",15.0,14.5,0.6,0.0,0,998.1,1,4,"",97
"2019-09-25 03:31:00",14.9,14.4,0.6,0.0,0,998.1,0,1,"",97
"2019-09-25 03:32:00",14.9,14.4,0.6,0.0,0,998.1,0,2,"",97
"2019-09-25 03:33:00",15.0,14.5,0.8,0.0,0,998.1,0,0,"",97
"2019-09-25 03:34:00",15.0,14.5,0.8,0.0,0,998.0,0,1,"",97
"2019-09-25 03:35:00",14.9,14.4,0.8,0.0,0,998.0,0,2,"",97
"2019-09-25 03:36:00",15.0,14.5,0.8,0.0,0,998.0,0,1,"",97
"2019-09-25 03:37:00",14.9,14.4,0.8,0.0,0,998.0,0,1,"",97
"2019-09-25 03:38:00",15.0,14.5,0.8,0.0,0,998.0,1,5,"",97
"2019-09-25 03:39:00",15.0,14.5,0.8,0.0,0,997.9,1,2,"",97
"2019-09-25 03:40:00",15.0,14.5,1.0,0.0,0,998.0,1,3,"",97
"2019-09-25 03:41:00",15.0,14.5,1.0,0.0,0,998.0,3,5,"",97
"2019-09-25 03:42:00",15.0,14.5,1.0,0.0,0,997.9,0,1,"",97
"2019-09-25 03:43:00",15.0,14.5,1.0,0.0,0,997.9,1,2,"",97
"2019-09-25 03:44:00",15.0,14.5,1.0,0.0,0,997.9,0,0,"",97
"2019-09-25 03:45:00",15.0,14.5,1.0,0.0,0,997.9,0,0,"",97
"2019-09-25 03:46:00",15.0,14.5,1.0,0.0,0,997.9,1,4,"",97
"2019-09-25 03:47:00",15.0,14.5,1.0,0.0,0,997.9,4,8,"",97
"2019-09-25 03:48:00",15.1,14.6,1.0,0.0,0,997.9,2,4,"",97
"2019-09-25 03:49:00",15.1,14.6,1.0,0.0,0,997.8,1,2,"",97
"2019-09-25 03:50:00",15.1,14.6,1.0,0.0,0,997.9,0,2,"",97
"2019-09-25 03:51:00",15.1,14.6,1.0,0.0,0,997.9,1,2,"",97
"2019-09-25 03:52:00",15.1,14.6,1.0,0.0,0,997.8,1,2,"",97
"2019-09-25 03:53:00",15.1,14.6,1.0,0.0,0,997.8,0,1,"",97
"2019-09-25 03:54:00",15.1,14.6,1.0,0.0,0,997.8,0,2,"",97
"2019-09-25 03:55:00",15.1,14.6,1.0,0.0,0,997.8,0,1,"",97
"2019-09-25 03:56:00",15.1,14.6,1.0,0.0,0,997.8,0,0,"",97
"2019-09-25 03:57:00",15.1,14.6,1.0,0.0,0,997.7,1,3,"",97
"2019-09-25 03:58:00",15.1,14.6,1.0,0.0,0,997.8,0,1,"",97
"2019-09-25 03:59:00",15.1,14.6,1.0,0.0,0,997.7,1,4,"",97
"2019-09-25 04:00:00",15.1,14.6,1.0,0.0,0,997.7,1,4,"",97
"2019-09-25 04:01:00",15.1,14.6,1.0,0.0,0,997.7,2,4,"",97
"2019-09-25 04:02:00",15.1,14.6,1.0,0.0,0,997.7,2,4,"",97
"2019-09-25 04:03:00",15.1,14.6,1.0,0.0,0,997.6,1,3,"",97
"2019-09-25 04:04:00",15.1,14.6,1.0,0.0,0,997.7,0,1,"",97
"2019-09-25 04:05:00",15.1,14.6,1.0,0.0,0,997.6,1,2,"",97
"2019-09-25 04:06:00",15.1,14.6,1.0,0.0,0,997.7,0,1,"",97
"2019-09-25 04:07:00",15.1,14.6,1.0,0.0,0,997.6,0,0,"",97
"2019-09-25 04:08:00",15.1,14.6,1.0,0.0,0,997.6,1,3,"",97
"2019-09-25 04:09:00",15.2,14.7,1.0,0.0,0,997.6,1,3,"",97
"2019-09-25 04:10:00",15.2,14.7,1.0,0.0,0,997.5,1,4,"",97
"2019-09-25 04:11:00",15.2,14.7,1.0,0.0,0,997.5,1,1,"",97
"2019-09-25 04:12:00",15.2,14.7,1.0,0.0,0,997.6,0,1,"",97
"2019-09-25 04:13:00",15.2,14.7,1.2,0.0,0,997.6,1,2,"",97
"2019-09-25 04:14:00",15.2,14.7,1.2,0.0,0,997.5,1,3,"",97
"2019-09-25 04:15:00",15.2,14.7,1.4,0.0,0,997.5,0,1,"",97
"2019-09-25 04:16:00",15.2,14.7,1.4,0.0,0,997.6,0,2,"",97
"2019-09-25 04:17:00",15.2,14.7,1.4,0.0,0,997.5,0,0,"",97
"2019-09-25 04:18:00",15.2,14.7,1.4,0.0,0,997.5,0,0,"",97
"2019-09-25 04:19:00",15.2,14.7,1.4,0.0,0,997.5,0,1,"",97
"2019-09-25 04:20:00",15.2,14.7,1.4,0.0,0,997.5,1,4,"",97
"2019-09-25 04:21:00",15.2,14.7,1.4,0.0,0,997.5,2,4,"",97
"2019-09-25 04:22:00",15.2,14.7,1.4,0.0,0,997.5,1,3,"",97
"2019-09-25 04:23:00",15.2,14.7,1.4,0.0,0,997.5,0,2,"",97
"2019-09-25 04:24:00",15.2,14.7,1.4,0.0,0,997.5,1,4,"",97
"2019-09-25 04:25:00",15.2,14.7,1.4,0.0,0,997.4,0,2,"",97
"2019-09-25 04:26:00",15.3,14.8,1.4,0.0,0,997.4,1,2,"",97
"2019-09-25 04:27:00",15.3,14.8,1.4,0.0,0,997.4,0,1,"",97
"2019-09-25 04:28:00",15.2,14.7,1.4,0.0,0,997.4,0,1,"",97
"2019-09-25 04:29:00",15.2,14.7,1.4,0.0,0,997.4,1,2,"",97
"2019-09-25 04:30:00",15.2,14.7,1.4,0.0,0,997.3,0,1,"",97
"2019-09-25 04:31:00",15.2,14.7,1.4,0.0,0,997.4,0,1,"",97
"2019-09-25 04:32:00",15.2,14.7,1.4,0.0,0,997.4,0,0,"",97
"2019-09-25 04:33:00",15.2,14.7,1.4,0.0,0,997.4,0,0,"",97
"2019-09-25 04:34:00",15.2,14.7,1.4,0.0,0,997.4,0,0,"",97
"2019-09-25 04:35:00",15.2,14.7,1.4,0.0,0,997.3,0,1,"",97
"2019-09-25 04:36:00",15.2,14.7,1.4,0.0,0,997.3,0,2,"",97
"2019-09-25 04:37:00",15.2,14.7,1.4,0.0,0,997.3,0,2,"",97
"2019-09-25 04:38:00",15.2,14.7,1.4,0.0,0,997.3,0,1,"",97
"2019-09-25 04:39:00",15.2,14.7,1.4,0.0,0,997.3,0,1,"",97
"2019-09-25 04:40:00",15.2,14.7,1.4,0.0,0,997.3,0,2,"",97
"2019-09-25 04:41:00",15.2,14.7,1.4,0.0,0,997.2,0,2,"",97
"2019-09-25 04:42:00",15.3,14.8,1.4,0.0,0,997.2,0,0,"",97
"2019-09-25 04:43:00",15.3,14.8,1.4,0.0,0,997.2,0,0,"",97
"2019-09-25 04:44:00",15.2,14.7,1.4,0.0,0,997.2,0,1,"",97
"2019-09-25 04:45:00",15.2,14.7,1.4,0.0,0,997.2,1,1,"",97
"2019-09-25 04:46:00",15.2,14.7,1.4,0.0,0,997.1,0,0,"",97
"2019-09-25 04:47:00",15.2,14.7,1.4,0.0,0,997.1,0,0,"",97
"2019-09-25 04:48:00",15.2,14.7,1.4,0.0,0,997.1,0,1,"",97
"2019-09-25 04:49:00",15.2,14.7,1.4,0.0,0,997.0,0,0,"",97
"2019-09-25 04:50:00",15.3,14.8,1.4,0.0,0,997.1,2,5,"",97
"2019-09-25 04:51:00",15.3,14.8,1.4,0.0,0,997.0,1,3,"",97
"2019-09-25 04:52:00",15.3,14.8,1.6,0.0,0,997.0,0,2,"",97
"2019-09-25 04:53:00",15.3,14.8,1.6,0.0,0,997.0,1,2,"",97
"2019-09-25 04:54:00",15.3,14.8,1.6,0.0,0,997.0,0,1,"",97
"2019-09-25 04:55:00",15.3,14.8,1.8,0.0,0,997.0,0,0,"",97
"2019-09-25 04:56:00",15.3,14.8,1.8,0.0,0,997.0,0,0,"",97
"2019-09-25 04:57:00",15.3,14.8,2.0,0.0,0,997.0,1,4,"",97
"2019-09-25 04:58:00",15.3,14.8,2.0,0.0,0,997.0,2,5,"",97
"2019-09-25 04:59:00",15.3,14.8,2.0,0.0,0,997.0,2,5,"",97
"2019-09-25 05:00:00",15.3,14.8,2.2,0.0,0,996.9,0,1,"",97
"2019-09-25 05:01:00",15.3,14.8,2.2,0.0,0,997.0,0,2,"",97
"2019-09-25 05:02:00",15.3,14.8,2.4,0.0,0,997.0,3,5,"",97
"2019-09-25 05:03:00",15.3,14.8,2.4,0.0,0,997.0,1,2,"",97
"2019-09-25 05:04:00",15.3,14.8,2.4,0.0,0,997.0,1,3,"",97
"2019-09-25 05:05:00",15.3,14.8,2.4,0.0,0,997.0,0,2,"",97
"2019-09-25 05:06:00",15.3,14.8,2.6,0.0,0,997.0,1,2,"",97
"2019-09-25 05:07:00",15.3,14.8,2.6,0.0,0,997.0,1,7,"",97
"2019-09-25 05:08:00",15.3,14.8,2.6,0.0,0,996.9,2,7,"",97
"2019-09-25 05:09:00",15.4,14.9,2.8,0.0,0,996.9,0,2,"",97
"2019-09-25 05:10:00",15.4,14.9,2.8,0.0,0,996.9,0,0,"",97
"2019-09-25 05:11:00",15.3,14.8,3.0,0.0,0,996.9,0,2,"",97
"2019-09-25 05:12:00",15.3,14.8,3.2,0.0,0,996.9,1,3,"",97
"2019-09-25 05:13:00",15.4,14.9,3.2,0.0,0,996.9,1,2,"",97
"2019-09-25 05:14:00",15.4,14.9,3.2,0.0,0,996.9,1,3,"",97
"2019-09-25 05:15:00",15.4,14.9,3.4,0.0,0,996.9,0,1,"",97
"2019-09-25 05:16:00",15.4,14.9,3.4,0.0,0,996.9,0,2,"",97
"2019-09-25 05:17:00",15.4,14.9,3.6,0.0,0,996.9,0,1,"",97
"2019-09-25 05:18:00",15.4,14.9,3.6,0.0,0,996.9,1,3,"",97
"2019-09-25 05:19:00",15.4,14.9,3.6,0.0,0,996.9,0,0,"",97
"2019-09-25 05:20:00",15.4,14.9,3.8,0.0,0,996.9,0,1,"",97
"2019-09-25 05:21:00",15.4,14.9,3.8,0.0,0,996.9,1,3,"",97
"2019-09-25 05:22:00",15.4,14.9,3.8,0.0,0,996.9,0,1,"",97
"2019-09-25 05:23:00",15.4,14.9,3.8,0.0,0,996.9,2,4,"",97
"2019-09-25 05:24:00",15.5,15.0,4.0,0.0,0,996.9,3,8,"",97
"2019-09-25 05:25:00",15.5,15.0,4.0,0.0,0,996.9,1,4,"",97
"2019-09-25 05:26:00",15.6,15.1,4.0,0.0,0,996.8,2,3,"",97
"2019-09-25 05:27:00",15.5,15.0,4.0,0.0,0,996.8,1,3,"",97
"2019-09-25 05:28:00",15.5,15.0,4.0,0.0,0,996.8,0,2,"",97
"2019-09-25 05:29:00",15.6,15.1,4.0,0.0,0,996.7,1,7,"",97
"2019-09-25 05:30:00",15.5,15.0,4.0,0.0,0,996.7,2,5,"",97
"2019-09-25 05:31:00",15.6,15.1,4.0,0.0,0,996.7,2,3,"",97
"2019-09-25 05:32:00",15.6,15.1,4.0,0.0,0,996.8,0,1,"",97
"2019-09-25 05:33:00",15.6,15.1,4.0,0.0,0,996.8,0,2,"",97
"2019-09-25 05:34:00",15.6,15.1,4.2,0.0,0,996.8,0,0,"",97
"2019-09-25 05:35:00",15.6,15.1,4.2,0.0,0,996.8,0,1,"",97
"2019-09-25 05:36:00",15.5,15.0,4.2,0.0,0,996.8,2,6,"",97
"2019-09-25 05:37:00",15.6,15.1,4.2,0.0,0,996.8,2,4,"",97
"2019-09-25 05:38:00",15.6,15.1,4.2,0.0,0,996.8,1,4,"",97
"2019-09-25 05:39:00",15.6,15.1,4.2,0.0,0,996.8,0,1,"",97
"2019-09-25 05:40:00",15.6,15.1,4.2,0.0,0,996.8,0,0,"",97
"2019-09-25 05:41:00",15.6,15.1,4.2,0.0,0,996.8,2,6,"",97
"2019-09-25 05:42:00",15.6,15.1,4.2,0.0,0,996.8,1,2,"",97
"2019-09-25 05:43:00",15.6,15.1,4.2,0.0,0,996.8,1,3,"",97
"2019-09-25 05:44:00",15.6,15.1,4.2,0.0,0,996.8,2,3,"",97
"2019-09-25 05:45:00",15.6,15.1,4.2,0.0,0,996.8,0,1,"",97
"2019-09-25 05:46:00",15.6,15.1,4.2,0.0,0,996.8,0,3,"",97
"2019-09-25 05:47:00",15.6,15.1,4.2,0.0,0,996.8,1,2,"",97
"2019-09-25 05:48:00",15.6,15.1,4.2,0.0,0,996.7,2,5,"",97
"2019-09-25 05:49:00",15.6,15.1,4.2,0.0,0,996.8,1,2,"",97
"2019-09-25 05:50:00",15.6,15.1,4.2,0.0,0,996.8,0,1,"",97
"2019-09-25 05:51:00",15.6,15.1,4.2,0.0,0,996.8,2,6,"",97
"2019-09-25 05:52:00",15.6,15.1,4.2,0.0,0,996.8,0,1,"",97
"2019-09-25 05:53:00",15.6,15.1,4.2,0.0,0,996.8,0,2,"",97
"2019-09-25 05:54:00",15.6,15.1,4.2,0.0,0,996.8,1,2,"",97
"2019-09-25 05:55:00",15.6,15.1,4.2,0.0,0,996.7,2,7,"",97
"2019-09-25 05:56:00",15.6,15.1,4.2,0.0,0,996.8,1,3,"",97
"2019-09-25 05:57:00",15.6,15.1,4.2,0.0,0,996.8,1,3,"",97
"2019-09-25 05:58:00",15.6,15.1,4.2,0.0,0,996.8,0,2,"",97
"2019-09-25 05:59:00",15.6,15.1,4.2,0.0,0,996.8,0,1,"",97
"2019-09-25 06:00:00",15.6,15.1,4.2,0.0,0,996.8,0,1,"",97
"2019-09-25 06:01:00",15.6,15.1,4.2,0.0,0,996.8,1,2,"",97
"2019-09-25 06:02:00",15.6,15.1,4.2,0.0,0,996.7,0,1,"",97
"2019-09-25 06:03:00",15.6,15.1,4.2,0.0,0,996.8,1,2,"",97
"2019-09-25 06:04:00",15.6,15.1,4.2,0.0,0,996.8,2,4,"",97
"2019-09-25 06:05:00",15.6,15.1,4.2,0.0,0,996.8,0,2,"",97
"2019-09-25 06:06:00",15.6,15.1,4.2,0.0,0,996.8,0,0,"",97
"2019-09-25 06:07:00",15.6,15.1,4.2,0.0,0,996.8,1,4,"",97
"2019-09-25 06:08:00",15.6,15.1,4.2,0.0,0,996.8,0,1,"",97
"2019-09-25 06:09:00",15.6,15.1,4.2,0.0,0,996.7,0,1,"",97
"2019-09-25 06:10:00",15.6,15.1,4.2,0.0,0,996.7,0,1,"",97
"2019-09-25 06:11:00",15.6,15.1,4.2,0.0,0,996.7,0,2,"",97
"2019-09-25 06:12:00",15.6,15.1,4.2,0.0,0,996.7,0,2,"",97
"2019-09-25 06:13:00",15.6,15.1,4.2,0.0,0,996.7,1,6,"",97
"2019-09-25 06:14:00",15.6,15.1,4.2,0.0,0,996.7,1,4,"",97
"2019-09-25 06:15:00",15.6,15.1,4.2,0.0,0,996.7,0,1,"",97
"2019-09-25 06:16:00",15.6,15.1,4.2,0.0,0,996.7,0,1,"",97
"2019-09-25 06:17:00",15.6,15.1,4.2,0.0,0,996.7,1,1,"",97
"2019-09-25 06:18:00",15.6,15.1,4.2,0.0,0,996.7,1,2,"",97
"2019-09-25 06:19:00",15.6,15.1,4.2,0.0,0,996.7,0,2,"",97
"2019-09-25 06:20:00",15.6,15.1,4.2,0.0,0,996.7,1,4,"",97
"2019-09-25 06:21:00",15.6,15.1,4.2,0.0,0,996.7,1,2,"",97
"2019-09-25 06:22:00",15.6,15.1,4.2,0.0,0,996.7,1,3,"",97
"2019-09-25 06:23:00",15.6,15.1,4.2,0.0,0,996.7,1,4,"",97
"2019-09-25 06:24:00",15.6,15.1,4.2,0.0,0,996.7,0,1,"",97
"2019-09-25 06:25:00",15.6,15.1,4.2,0.0,0,996.7,0,1,"",97
"2019-09-25 06:26:00",15.6,15.1,4.2,0.0,0,996.7,1,4,"",97
"2019-09-25 06:27:00",15.6,15.1,4.2,0.0,0,996.7,2,4,"",97
"2019-09-25 06:28:00",15.6,15.1,4.2,0.0,0,996.7,0,2,"",97
"2019-09-25 06:29:00",15.6,15.1,4.2,0.0,0,996.7,2,4,"",97
"2019-09-25 06:30:00",15.6,15.1,4.2,0.0,0,996.7,0,2,"",97
"2019-09-25 06:31:00",15.6,15.1,4.2,0.0,0,996.7,0,1,"",97
"2019-09-25 06:32:00",15.6,15.1,4.2,0.0,0,996.7,0,1,"",97
"2019-09-25 06:33:00",15.6,15.1,4.2,0.0,0,996.7,0,2,"",97
"2019-09-25 06:34:00",15.6,15.1,4.2,0.0,0,996.7,2,5,"",97
"2019-09-25 06:35:00",15.6,15.1,4.2,0.0,0,996.7,0,3,"",97
"2019-09-25 06:36:00",15.6,15.1,4.2,0.0,0,996.7,1,3,"",97
"2019-09-25 06:37:00",15.6,15.1,4.2,0.0,0,996.7,1,2,"",97
"2019-09-25 06:38:00",15.6,15.1,4.2,0.0,0,996.8,0,0,"",97
"2019-09-25 06:39:00",15.6,15.1,4.2,0.0,0,996.8,0,2,"",97
"2019-09-25 06:40:00",15.6,15.1,4.2,0.0,0,996.8,1,2,"",97
"2019-09-25 06:41:00",15.6,15.1,4.2,0.0,0,996.8,0,1,"",97
"2019-09-25 06:42:00",15.6,15.1,4.2,0.0,0,996.8,0,2,"",97
"2019-09-25 06:43:00",15.6,15.1,4.2,0.0,0,996.8,0,1,"",97
"2019-09-25 06:44:00",15.6,15.1,4.2,0.0,0,996.8,0,1,"",97
"2019-09-25 06:45:00",15.6,15.1,4.2,0.0,0,996.8,0,1,"",97
"2019-09-25 06:46:00",15.6,15.1,4.2,0.0,0,996.8,0,1,"",97
"2019-09-25 06:47:00",15.6,15.1,4.2,0.0,0,996.8,0,1,"",97
"2019-09-25 06:48:00",15.6,15.1,4.2,0.0,0,996.8,1,5,"",97
"2019-09-25 06:49:00",15.6,15.1,4.2,0.0,0,996.8,1,1,"",97
"2019-09-25 06:50:00",15.6,15.1,4.2,0.0,0,996.8,0,1,"",97
"2019-09-25 06:51:00",15.6,15.1,4.2,0.0,0,996.8,0,1,"",97